Location: Dompnac
(44.5644°N, 4.1026°E)
Time: 13:59:19
(UTC+00:00)

Cosmos 2026 Rocket - Pass Details

Date: 23 January 2021
Orbit: 940 x 1000 km, 82.9° (Epoch: 28 February)

Event Time Altitude Azimuth Distance (km) Brightness Sun altitude
Rises 17:13:28 0° 142° (SE) 3,607 6.8 -6.2°
Reaches altitude 10° 17:16:35 10° 126° (SE) 2,675 6.0 -6.8°
Maximum altitude 17:20:52 20° 81° (E) 2,052 5.1 -7.5°
Drops below altitude 10° 17:25:11 10° 37° (NE) 2,716 5.8 -8.2°
Sets 17:28:22 0° 22° (NNE) 3,679 6.6 -8.7°
